NOAA 16 DEB, 41378

Orbit data source: Space-Track

NOAA 16 DEB, 41378 is space debris in SSO originally from a launch on Thu, 21 Sep 2000 UTC launched from the Air Force Western Test Range (AFWTR). Debris objects in space refer to the collection of defunct objects orbiting the Earth. Examples of debris include non-operational satellites, rocket bodies, and fragments generated from explosions, collisions, or faulty payload assembly.

Loading next visibility...
Identifier
41378, 2000-055JX
Orbit
SSO
Country
Flag of USUS
Related business
Manufacturer
Unknown
Mission
Spacecraft
Bus & Motor
Unknown
Mass
Unknown
Launch date (UTC)
2000-09-21 (26 years ago)
Launch vehicle
Unknown
Launch site
Air Force Western Test Range (AFWTR)
Object type
Payload
Rocket body
Debris
Shape & HBR
Unknown shape, 0.1 m
Radar Cross Section
Medium (>0.1 m² and <1 m²)

Expand to show TLE details & history
Last TLE update: 1 day ago

TLE from 1 day ago
0 NOAA 16 DEB
1 41378U 00055JX  26205.83672063  .00002516  00000-0  12008-2 0  9990
2 41378  98.6308 219.9425 0042292  33.0715 327.3094 14.19624307541688
Epoch: 2026-07-24T20:04Z
TLE epoch observation values (Epoch: 2026-07-24T20:04:52.662Z)
Latitude
0.00006°
Longitude
-23.83457°
Altitude
803.929 km
Speed
7.465 km/s
True Right ascension
14h 39m 46s
True Declination
0° 00' 00"
Sunlit
Object was in daylight at epoch
Visualization orbit readout
Latitude
Unknown
Longitude
Unknown
Altitude
Unknown
Speed
Unknown
Apparent Right ascension
Unknown
Apparent Declination
Unknown
Sunlit
N/A
Visualization observer readout
Local Sidereal Time
16:15:08
Azimuth
Unknown
Elevation
Unknown
Doppler factor
Unknown
Orbital elements
Apogee altitude
854.237 km
Perigee altitude
793.321 km
Semi-major axis
7,201.916 km
Eccentricity
0.00423
Inclination
98.6308°
RAAN
219.9425°
Arg. of periapsis
33.0715°
True anomaly
327.04648°
Mean anomaly
327.3094°
Eccentric anomaly
327.17806°
Mean motion
3.55117 °/min
Orbital period
101.38 mins
BSTAR
0.0012008
Loading maneuver chart data...
Computing Atmospheric mass density...
Loading historical data...
Loading historical data...
Loading historical data...
Loading historical data...
Loading historical data...
Loading historical data...
Loading historical data...

Documentation

Showing up to 5 results
|